Regional Weather Roundup
Issued by NWS

Home | Current Version | Previous Version | Text Only | Print | Product List | Glossary On
Versions: 1 2 3 4 5 6 7 8 9 10 11 12 13 14 15 16 17 18 19 20 21 22 23 24 25 26 27 28 29 30 31 32 33 34 35 36 37 38 39 40 41 42 43 44 45 46 47 48 49 50
000
ASUS44 KLIX 060207
RWRLA
LOUISIANA WEATHER ROUNDUP
NATIONAL WEATHER SERVICE NEW ORLEANS LA
900 PM CDT TUE MAY 05 2015

NOTE: "FAIR" INDICATES FEW OR NO CLOUDS BELOW 12,000 FEET WITH NO
      SIGNIFICANT WEATHER AND/OR OBSTRUCTIONS TO VISIBILITY.
      SKY/WX - SKY CONDITION AND SIGNIFICANT WEATHER.
      TMP - AIR TEMPERATURE.    DP   - DEWPOINT TEMPERATURE.
      RH  - RELATIVE HUMIDITY.  PRES - PRESSURE.
      HX  - HEAT INDEX.         WCI  - WIND CHILL INDEX.

*  THESE STATIONS ARE NOT NWS OR FAA STATIONS AND ARE NOT UNDER
   NWS QUALITY CONTROL.

LAZ040-048-061>063-065-066-069-060300-
SOUTHEAST LOUISIANA

CITY           SKY/WX    TMP DP  RH WIND       PRES   REMARKS
N.O. AUDUBON     N/A     73  64  72 MISG        N/A
N.O. INTL ARPT CLEAR     73  60  63 SE12      30.11R
N.O. LAKEFRONT CLEAR     74  62  66 SE14      30.12R
SLIDELL        CLEAR     70  62  76 E3        30.12R
BATON ROUGE    CLEAR     70  61  73 E6        30.10R
BOOTHVILLE     CLEAR     72  66  81 E7        30.12R
BELLE CHASSE   CLEAR     72  62  71 E10       30.11R
BOGALUSA*        N/A     73  57  58 CALM      30.14R
GALLIANO*      PTCLDY    74  63  66 CALM      30.11R
NEW ROADS*     FAIR      73  56  56 E6        30.10R
GONZALES*      FAIR      72  62  71 CALM      30.09S
HAMMOND*       CLEAR     72  59  64 SE5       30.13S
HOUMA*         CLEAR     71  63  75 E9        30.10R
PORT FOURCHON* PTCLDY    75  64  69 E14G22    30.13R

$$

LAZ041-044-053-054-060300-
SOUTHWEST LOUISIANA

CITY           SKY/WX    TMP DP  RH WIND       PRES   REMARKS
LAKE CHARLES   PTCLDY    73  66  78 SE7       30.05R
LAFAYETTE      PTCLDY    74  61  63 VRB3      30.07R
PATTERSON      CLEAR    N/A N/A N/A E8        30.10R
SALT POINT       N/A     72  65  78 E5        30.07R
NEW IBERIA       N/A    N/A N/A N/A MISG      30.08R
CHENAULT AIRPK NOT AVBL

$$

LAZ027-028-060300-
CENTRAL LOUISIANA

CITY           SKY/WX    TMP DP  RH WIND       PRES   REMARKS
FORT POLK      CLEAR     74  64  69 SE8       30.04R
ALEXANDRIA INT MOCLDY    71  66  84 S3        30.05R
ALEXANDRIA     MOCLDY    78  60  53 SE9       30.07R

$$

LAZ001-002-060300-
NORTHWEST LOUISIANA

CITY           SKY/WX    TMP DP  RH WIND       PRES   REMARKS
SHREVEPORT     MOCLDY    75  63  66 SE7       30.02R
BARKSDALE AFB  MOCLDY    75  62  65 SE8       30.03R
DTN SHREVEPORT NOT AVBL

$$

LAZ014-016-060300-
NORTHEAST LOUISIANA

CITY           SKY/WX    TMP DP  RH WIND       PRES   REMARKS
MONROE         CLEAR     75  61  61 CALM      30.08R
TALLULAH       CLEAR     67  61  81 CALM      30.09R

$$



USA.gov is the U.S. government's official web portal to all federal, state and local government web resources and services.